Total_Precipitation_Accumulation
0.00 0.01 0.02 0.02 0.02 0.04 0.08 0.10 0.20 0.27 0.21 0.22 0.39 0.58 0.71 0.83 1.06 1.18 1.21 1.17 1.21 1.50 1.91 2.12 2.43 2.92 3.72 4.46 5.14 5.24 5.48 5.01 4.37 3.84 3.46 3.35 3.15 2.83 2.71 2.57 2.39 2.24 2.03 1.89
0.02 0.04 0.03 0.02 0.03 0.05 0.10 0.13 0.22 0.24 0.17 0.20 0.41 0.68 0.85 0.94 0.93 0.99 1.04 1.10 1.21 1.57 2.02 2.37 2.90 3.29 3.31 3.85 4.56 4.61 4.31 4.08 3.64 3.26 3.10 2.93 2.87 2.55 2.35 2.20 2.18 1.98 1.83 1.83
0.04 0.05 0.03 0.03 0.05 0.11 0.13 0.15 0.19 0.19 0.17 0.25 0.46 0.85 1.15 1.08 0.81 0.73 0.79 0.89 1.03 1.37 1.88 2.31 2.73 3.16 3.13 3.51 3.60 3.23 3.07 3.15 3.09 2.93 2.81 2.68 2.68 2.48 2.21 2.02 1.99 1.82 1.62 1.62
0.03 0.03 0.03 0.04 0.06 0.07 0.09 0.08 0.08 0.08 0.15 0.31 0.46 1.03 1.44 1.23 0.93 0.76 0.79 0.96 1.03 1.14 1.34 1.63 1.97 2.39 2.58 2.67 2.59 2.55 2.53 2.57 2.76 2.77 2.54 2.35 2.07 1.97 1.90 1.78 1.82 1.80 1.57 1.49
0.03 0.03 0.03 0.04 0.05 0.05 0.05 0.05 0.05 0.10 0.14 0.30 0.51 0.87 1.28 1.26 1.21 1.04 0.91 0.96 0.91 0.95 1.03 1.17 1.27 1.48 1.77 2.02 2.08 2.07 2.34 2.43 2.46 2.45 2.39 2.39 2.12 1.94 1.89 1.99 2.19 2.10 1.79 1.48
0.05 0.05 0.04 0.04 0.04 0.05 0.05 0.06 0.13 0.27 0.40 0.74 0.73 0.77 1.13 1.09 1.04 1.04 0.89 0.75 0.71 0.73 0.79 0.98 1.03 1.06 1.20 1.35 1.48 1.60 1.86 2.07 2.14 2.11 2.12 2.17 2.17 2.12 1.95 1.88 1.93 1.84 1.70 1.52
0.14 0.12 0.09 0.05 0.05 0.06 0.06 0.09 0.33 0.71 1.04 1.21 0.77 0.75 0.95 0.83 0.84 0.91 0.72 0.50 0.47 0.56 0.61 0.81 0.80 0.84 0.95 0.98 1.09 1.27 1.48 1.64 1.76 1.84 1.90 1.96 2.13 2.06 1.84 1.65 1.67 1.64 1.49 1.41
0.15 0.18 0.10 0.05 0.06 0.06 0.06 0.07 0.20 0.36 0.51 0.72 0.77 1.14 1.07 0.69 0.65 0.57 0.42 0.32 0.30 0.47 0.55 0.62 0.57 0.58 0.73 0.80 0.88 1.04 1.17 1.26 1.38 1.60 1.82 1.79 1.89 1.75 1.62 1.73 1.63 1.52 1.33 1.36
0.07 0.07 0.06 0.05 0.06 0.07 0.05 0.05 0.07 0.10 0.16 0.45 0.85 1.24 1.04 0.63 0.56 0.44 0.31 0.25 0.29 0.37 0.52 0.50 0.44 0.45 0.49 0.54 0.62 0.79 1.07 1.16 1.21 1.29 1.51 1.61 1.59 1.60 1.66 1.78 1.73 1.61 1.53 1.40
0.04 0.03 0.04 0.05 0.06 0.07 0.06 0.06 0.06 0.08 0.16 0.35 0.72 1.12 1.20 0.93 0.68 0.46 0.36 0.35 0.43 0.46 0.59 0.61 0.45 0.40 0.42 0.42 0.51 0.62 0.81 1.02 1.20 1.20 1.20 1.25 1.48 1.55 1.66 1.70 1.59 1.58 1.56 1.55
0.04 0.02 0.03 0.05 0.07 0.08 0.08 0.08 0.09 0.10 0.13 0.23 0.56 0.82 0.74 0.73 0.57 0.45 0.45 0.54 0.44 0.44 0.50 0.56 0.39 0.32 0.36 0.39 0.47 0.60 0.74 1.01 1.19 1.10 1.13 1.26 1.42 1.51 1.56 1.69 1.67 1.61 1.58 1.61
0.05 0.03 0.04 0.08 0.11 0.11 0.10 0.11 0.11 0.15 0.16 0.17 0.29 0.52 0.45 0.52 0.51 0.58 0.63 0.61 0.54 0.51 0.52 0.54 0.45 0.47 0.50 0.54 0.58 0.68 0.77 0.90 1.02 1.07 1.16 1.23 1.34 1.42 1.45 1.49 1.58 1.65 1.62 1.68
0.06 0.05 0.07 0.21 0.31 0.23 0.15 0.11 0.12 0.13 0.13 0.16 0.31 0.52 0.45 0.50 0.53 0.58 0.60 0.58 0.65 0.66 0.61 0.58 0.60 0.67 0.64 0.65 0.74 0.81 0.87 0.88 0.99 1.16 1.18 1.15 1.22 1.21 1.26 1.34 1.42 1.54 1.60 1.63
0.07 0.06 0.08 0.22 0.33 0.36 0.27 0.17 0.16 0.13 0.14 0.17 0.25 0.47 0.46 0.57 0.71 0.64 0.69 0.64 0.59 0.60 0.59 0.53 0.58 0.62 0.66 0.68 0.72 0.80 0.87 0.92 1.00 1.01 1.03 1.07 1.11 1.15 1.25 1.35 1.39 1.44 1.42 1.48
0.09 0.07 0.05 0.09 0.17 0.20 0.21 0.20 0.18 0.13 0.12 0.18 0.25 0.40 0.53 0.63 0.76 0.68 0.68 0.74 0.75 0.62 0.54 0.45 0.45 0.54 0.64 0.70 0.72 0.79 0.85 0.94 1.08 1.08 1.06 1.10 1.16 1.16 1.20 1.24 1.25 1.27 1.34 1.36
0.15 0.11 0.10 0.11 0.14 0.14 0.16 0.18 0.16 0.11 0.09 0.10 0.19 0.39 0.55 0.68 0.70 0.65 0.57 0.56 0.70 0.63 0.55 0.53 0.53 0.60 0.64 0.66 0.68 0.71 0.72 0.82 0.98 1.06 1.16 1.25 1.24 1.14 1.18 1.19 1.17 1.22 1.33 1.42
0.28 0.22 0.21 0.21 0.17 0.18 0.25 0.21 0.18 0.15 0.13 0.14 0.25 0.39 0.55 0.69 0.61 0.64 0.60 0.53 0.52 0.52 0.51 0.58 0.63 0.65 0.65 0.65 0.63 0.64 0.62 0.74 1.02 1.12 1.14 1.28 1.35 1.25 1.30 1.33 1.32 1.33 1.38 1.49
0.38 0.39 0.31 0.28 0.31 0.38 0.29 0.24 0.23 0.25 0.26 0.24 0.28 0.39 0.61 0.79 0.70 0.63 0.63 0.62 0.56 0.46 0.50 0.58 0.60 0.61 0.63 0.64 0.65 0.65 0.66 0.73 0.98 1.15 1.21 1.41 1.56 1.46 1.47 1.47 1.49 1.52 1.57 1.62
0.39 0.47 0.47 0.42 0.44 0.47 0.39 0.35 0.36 0.45 0.56 0.47 0.48 0.61 0.67 0.65 0.67 0.72 0.67 0.61 0.56 0.55 0.59 0.61 0.65 0.67 0.73 0.80 0.82 0.82 0.89 0.99 1.13 1.25 1.36 1.58 1.77 1.81 1.78 1.72 1.80 1.84 1.85 1.87
0.35 0.45 0.55 0.57 0.64 0.73 0.67 0.53 0.49 0.63 1.00 0.81 0.66 0.69 0.71 0.70 0.88 0.90 0.66 0.56 0.54 0.57 0.65 0.77 0.87 0.86 0.87 0.95 0.95 0.98 1.09 1.28 1.41 1.43 1.45 1.56 1.75 1.83 1.81 1.80 1.95 2.08 2.10 2.07
0.54 0.55 0.57 0.64 0.75 0.75 0.67 0.60 0.63 1.11 1.47 1.04 0.89 0.91 0.95 0.94 0.91 0.78 0.71 0.71 0.63 0.59 0.66 0.72 0.75 0.86 0.97 1.07 1.14 1.24 1.28 1.36 1.40 1.41 1.44 1.53 1.76 2.05 1.98 2.00 2.06 2.16 2.20 2.22
0.73 0.74 0.72 0.76 0.99 1.12 0.74 0.65 1.00 1.35 1.24 1.26 1.22 1.20 1.14 1.00 0.82 0.71 0.70 0.75 0.65 0.62 0.70 0.71 0.71 0.82 0.99 1.18 1.35 1.39 1.38 1.40 1.48 1.49 1.51 1.59 1.82 1.92 1.97 2.09 2.14 2.25 2.34 2.33
0.83 0.94 0.93 1.02 1.23 1.14 0.90 0.96 1.00 1.07 1.19 1.25 1.18 1.19 1.16 1.10 0.98 0.87 0.82 0.77 0.72 0.72 0.74 0.81 0.83 0.88 0.98 1.15 1.36 1.49 1.50 1.49 1.47 1.44 1.44 1.53 1.66 1.73 1.86 1.94 1.89 1.94 2.05 2.05
0.97 0.86 1.08 1.41 1.41 1.24 1.07 0.98 0.98 0.94 1.02 1.02 0.99 0.94 0.93 0.93 0.91 0.88 0.88 0.89 0.91 0.92 0.88 0.90 0.91 0.93 1.00 1.09 1.27 1.41 1.39 1.41 1.44 1.38 1.34 1.44 1.63 1.73 1.80 1.86 1.84 1.89 1.95 1.99
1.25 1.17 1.37 1.74 1.70 1.50 1.40 1.23 1.18 1.04 1.00 0.98 0.95 0.92 0.86 0.78 0.77 0.77 0.74 0.75 0.81 0.88 0.91 0.88 0.87 0.91 0.93 1.01 1.21 1.35 1.36 1.39 1.47 1.44 1.39 1.45 1.55 1.65 1.79 1.84 1.87 1.89 1.89 1.86
1.19 1.40 1.66 1.86 1.70 1.59 1.58 1.29 1.24 1.30 1.18 1.04 1.04 1.00 0.91 0.78 0.72 0.69 0.68 0.68 0.70 0.78 0.90 0.93 0.95 0.94 0.93 1.00 1.15 1.27 1.43 1.58 1.61 1.53 1.48 1.44 1.41 1.48 1.56 1.63 1.59 1.53 1.49 1.47